Time,TemperatureF,DewpointF,PressureIn,WindDirection,WindDirectionDegrees,WindSpeedMPH,WindSpeedGustMPH,Humidity,HourlyPrecipIn,Conditions,Clouds,dailyrainin,SolarRadiationWatts/m^2,SoftwareType,DateUTC
2013-01-28 00:02:00,68.0,64.0,-100.00,SSE,165,5.0,12.0,86,0.00,,,0.02,0.000000,,2013-01-28 06:02:00,
2013-01-28 00:32:00,68.0,64.0,-100.00,SSE,164,5.0,14.0,86,0.00,,,0.02,0.000000,,2013-01-28 06:32:00,
2013-01-28 00:42:00,68.0,64.0,-100.00,SSE,164,5.0,14.0,86,0.00,,,0.02,0.000000,,2013-01-28 06:42:00,
2013-01-28 00:52:00,68.0,64.0,-100.00,SSE,164,5.0,14.0,86,0.00,,,0.02,0.000000,,2013-01-28 06:52:00,
2013-01-28 01:02:00,68.0,64.0,-100.00,SSE,164,5.0,14.0,86,0.00,,,0.02,0.000000,,2013-01-28 07:02:00,
2013-01-28 01:22:00,68.0,63.0,-100.00,South,169,5.0,15.0,85,0.00,,,0.02,0.000000,,2013-01-28 07:22:00,
2013-01-28 01:32:00,68.0,63.0,-100.00,South,169,5.0,15.0,85,0.00,,,0.02,0.000000,,2013-01-28 07:32:00,
2013-01-28 01:42:00,68.0,63.0,-100.00,South,169,5.0,15.0,85,0.00,,,0.02,0.000000,,2013-01-28 07:42:00,
2013-01-28 01:52:00,68.0,63.0,-100.00,South,169,5.0,15.0,85,0.00,,,0.02,0.000000,,2013-01-28 07:52:00,
2013-01-28 02:01:00,68.0,63.0,-100.00,South,169,5.0,15.0,85,0.00,,,0.02,0.000000,,2013-01-28 08:01:00,
2013-01-28 02:32:00,67.0,63.0,-100.00,South,176,4.0,11.0,86,0.00,,,0.02,0.000000,,2013-01-28 08:32:00,
2013-01-28 02:42:00,67.0,63.0,-100.00,South,176,4.0,11.0,86,0.00,,,0.02,0.000000,,2013-01-28 08:42:00,
2013-01-28 02:52:00,67.0,63.0,-100.00,South,176,4.0,11.0,86,0.00,,,0.02,0.000000,,2013-01-28 08:52:00,
2013-01-28 03:02:00,67.0,63.0,-100.00,South,176,4.0,11.0,86,0.00,,,0.02,0.000000,,2013-01-28 09:02:00,
2013-01-28 03:32:00,67.0,63.0,-100.00,SSE,166,4.0,9.0,87,0.00,,,0.02,0.000000,,2013-01-28 09:32:00,
2013-01-28 03:42:00,67.0,63.0,-100.00,SSE,166,4.0,9.0,87,0.00,,,0.02,0.000000,,2013-01-28 09:42:00,
2013-01-28 03:52:00,67.0,63.0,-100.00,SSE,166,4.0,9.0,87,0.00,,,0.02,0.000000,,2013-01-28 09:52:00,
2013-01-28 04:02:00,67.0,63.0,-100.00,SSE,166,4.0,9.0,87,0.00,,,0.02,0.000000,,2013-01-28 10:02:00,
2013-01-28 04:32:00,66.0,63.0,-100.00,SSE,166,4.0,10.0,89,0.00,,,0.02,0.000000,,2013-01-28 10:32:00,
2013-01-28 04:42:00,66.0,63.0,-100.00,SSE,166,4.0,10.0,89,0.00,,,0.02,0.000000,,2013-01-28 10:42:00,
2013-01-28 04:52:00,66.0,63.0,-100.00,SSE,166,4.0,10.0,89,0.00,,,0.02,0.000000,,2013-01-28 10:52:00,
2013-01-28 05:02:00,66.0,63.0,-100.00,SSE,166,4.0,10.0,89,0.00,,,0.02,0.000000,,2013-01-28 11:02:00,
2013-01-28 05:03:00,66.0,63.0,-100.00,SSE,150,3.0,8.0,91,0.00,,,0.02,0.000000,,2013-01-28 11:03:00,
2013-01-28 05:32:00,66.0,63.0,-100.00,SSE,150,3.0,8.0,91,0.00,,,0.02,0.000000,,2013-01-28 11:32:00,
2013-01-28 05:42:00,66.0,63.0,-100.00,SSE,150,3.0,8.0,91,0.00,,,0.02,0.000000,,2013-01-28 11:42:00,
2013-01-28 05:52:00,66.0,63.0,-100.00,SSE,150,3.0,8.0,91,0.00,,,0.02,0.000000,,2013-01-28 11:52:00,
2013-01-28 06:23:00,65.0,63.0,-100.00,SSE,154,4.0,8.0,93,0.00,,,0.02,0.000000,,2013-01-28 12:23:00,
2013-01-28 06:33:00,65.0,63.0,-100.00,SSE,154,4.0,8.0,93,0.00,,,0.02,0.000000,,2013-01-28 12:33:00,
2013-01-28 06:42:00,65.0,63.0,-100.00,SSE,154,4.0,8.0,93,0.00,,,0.02,0.000000,,2013-01-28 12:42:00,
2013-01-28 06:52:00,65.0,63.0,-100.00,SSE,154,4.0,8.0,93,0.00,,,0.02,0.000000,,2013-01-28 12:52:00,
2013-01-28 07:02:00,65.0,63.0,-100.00,SSE,154,4.0,8.0,93,0.00,,,0.02,0.000000,,2013-01-28 13:02:00,
2013-01-28 07:03:00,66.0,64.0,-100.00,SSE,147,5.0,9.0,93,0.00,,,0.02,0.000000,,2013-01-28 13:03:00,
2013-01-28 07:23:00,66.0,64.0,-100.00,SSE,147,5.0,9.0,93,0.00,,,0.02,0.000000,,2013-01-28 13:23:00,
2013-01-28 07:33:00,66.0,64.0,-100.00,SSE,147,5.0,9.0,93,0.00,,,0.02,0.000000,,2013-01-28 13:33:00,
2013-01-28 07:42:00,66.0,64.0,-100.00,SSE,147,5.0,9.0,93,0.00,,,0.02,0.000000,,2013-01-28 13:42:00,
2013-01-28 07:53:00,66.0,64.0,-100.00,SSE,147,5.0,9.0,93,0.00,,,0.02,0.000000,,2013-01-28 13:53:00,
2013-01-28 08:03:00,67.0,65.0,-100.00,SSE,149,5.0,10.0,92,0.00,,,-99.99,11.000000,,2013-01-28 14:03:00,
2013-01-28 08:33:00,67.0,65.0,-100.00,SSE,149,5.0,10.0,92,0.00,,,-99.99,11.000000,,2013-01-28 14:33:00,
2013-01-28 08:43:00,67.0,65.0,-100.00,SSE,149,5.0,10.0,92,0.00,,,-99.99,11.000000,,2013-01-28 14:43:00,
2013-01-28 08:53:00,67.0,65.0,-100.00,SSE,149,5.0,10.0,92,0.00,,,-99.99,11.000000,,2013-01-28 14:53:00,
2013-01-28 09:03:00,68.0,65.0,-100.00,SSE,150,5.0,11.0,89,0.00,,,0.02,60.000000,,2013-01-28 15:03:00,
2013-01-28 09:33:00,68.0,65.0,-100.00,SSE,150,5.0,11.0,89,0.00,,,0.02,60.000000,,2013-01-28 15:33:00,
2013-01-28 09:43:00,68.0,65.0,-100.00,SSE,150,5.0,11.0,89,0.00,,,0.02,60.000000,,2013-01-28 15:43:00,
2013-01-28 09:53:00,68.0,65.0,-100.00,SSE,150,5.0,11.0,89,0.00,,,0.02,60.000000,,2013-01-28 15:53:00,
2013-01-28 10:33:00,70.0,65.0,-100.00,SSE,159,6.0,11.0,85,0.00,,,0.02,127.000000,,2013-01-28 16:33:00,
2013-01-28 10:43:00,70.0,65.0,-100.00,SSE,159,6.0,11.0,85,0.00,,,0.02,127.000000,,2013-01-28 16:43:00,
2013-01-28 10:53:00,70.0,65.0,-100.00,SSE,159,6.0,11.0,85,0.00,,,0.02,127.000000,,2013-01-28 16:53:00,
2013-01-28 11:02:00,70.0,65.0,-100.00,SSE,159,6.0,11.0,85,0.00,,,0.02,127.000000,,2013-01-28 17:02:00,
2013-01-28 11:03:00,72.0,65.0,-100.00,SSE,163,6.0,12.0,79,0.00,,,0.02,216.000000,,2013-01-28 17:03:00,
2013-01-28 11:33:00,72.0,65.0,-100.00,SSE,163,6.0,12.0,79,0.00,,,0.02,216.000000,,2013-01-28 17:33:00,
2013-01-28 11:42:00,72.0,65.0,-100.00,SSE,163,6.0,12.0,79,0.00,,,0.02,216.000000,,2013-01-28 17:42:00,
2013-01-28 11:53:00,72.0,65.0,-100.00,SSE,163,6.0,12.0,79,0.00,,,0.02,216.000000,,2013-01-28 17:53:00,
2013-01-28 12:23:00,75.0,64.0,-100.00,South,178,6.0,16.0,68,0.00,,,0.02,263.000000,,2013-01-28 18:23:00,
2013-01-28 12:33:00,75.0,64.0,-100.00,South,178,6.0,16.0,68,0.00,,,0.02,263.000000,,2013-01-28 18:33:00,
2013-01-28 12:42:00,75.0,64.0,-100.00,South,178,6.0,16.0,68,0.00,,,0.02,263.000000,,2013-01-28 18:42:00,
2013-01-28 12:52:00,75.0,64.0,-100.00,South,178,6.0,16.0,68,0.00,,,0.02,263.000000,,2013-01-28 18:52:00,
2013-01-28 13:02:00,75.0,64.0,-100.00,South,178,6.0,16.0,68,0.00,,,0.02,263.000000,,2013-01-28 19:02:00,
2013-01-28 13:33:00,76.0,62.0,-100.00,South,176,7.0,15.0,62,0.00,,,0.02,336.000000,,2013-01-28 19:33:00,
2013-01-28 13:42:00,76.0,62.0,-100.00,South,176,7.0,15.0,62,0.00,,,0.02,336.000000,,2013-01-28 19:42:00,
2013-01-28 13:52:00,76.0,62.0,-100.00,South,176,7.0,15.0,62,0.00,,,0.02,336.000000,,2013-01-28 19:52:00,
2013-01-28 14:02:00,76.0,62.0,-100.00,South,176,7.0,15.0,62,0.00,,,0.02,336.000000,,2013-01-28 20:02:00,
2013-01-28 14:03:00,78.0,61.0,-100.00,South,179,8.0,20.0,55,0.00,,,0.02,522.000000,,2013-01-28 20:03:00,
2013-01-28 14:33:00,78.0,61.0,-100.00,South,179,8.0,20.0,55,0.00,,,0.02,522.000000,,2013-01-28 20:33:00,
2013-01-28 14:43:00,78.0,61.0,-100.00,South,179,8.0,20.0,55,0.00,,,0.02,522.000000,,2013-01-28 20:43:00,
2013-01-28 14:53:00,78.0,61.0,-100.00,South,179,8.0,20.0,55,0.00,,,0.02,522.000000,,2013-01-28 20:53:00,
2013-01-28 15:33:00,78.0,58.0,-100.00,South,179,6.0,14.0,51,0.00,,,0.02,426.000000,,2013-01-28 21:33:00,
2013-01-28 15:43:00,78.0,58.0,-100.00,South,179,6.0,14.0,51,0.00,,,0.02,426.000000,,2013-01-28 21:43:00,
2013-01-28 15:53:00,78.0,58.0,-100.00,South,179,6.0,14.0,51,0.00,,,0.02,426.000000,,2013-01-28 21:53:00,
2013-01-28 16:02:00,78.0,58.0,-100.00,South,179,6.0,14.0,51,0.00,,,0.02,426.000000,,2013-01-28 22:02:00,
2013-01-28 16:23:00,78.0,59.0,-100.00,South,175,6.0,17.0,52,0.00,,,0.02,321.000000,,2013-01-28 22:23:00,
2013-01-28 16:33:00,78.0,59.0,-100.00,South,175,6.0,17.0,52,0.00,,,0.02,321.000000,,2013-01-28 22:33:00,
2013-01-28 16:42:00,78.0,59.0,-100.00,South,175,6.0,17.0,52,0.00,,,0.02,321.000000,,2013-01-28 22:42:00,
2013-01-28 16:52:00,78.0,59.0,-100.00,South,175,6.0,17.0,52,0.00,,,0.02,321.000000,,2013-01-28 22:52:00,
2013-01-28 17:02:00,78.0,59.0,-100.00,South,175,6.0,17.0,52,0.00,,,0.02,321.000000,,2013-01-28 23:02:00,
2013-01-28 17:33:00,76.0,59.0,-100.00,SSE,152,7.0,17.0,56,0.00,,,0.02,194.000000,,2013-01-28 23:33:00,
2013-01-28 17:42:00,76.0,59.0,-100.00,SSE,152,7.0,17.0,56,0.00,,,0.02,194.000000,,2013-01-28 23:42:00,
2013-01-28 17:53:00,76.0,59.0,-100.00,SSE,152,7.0,17.0,56,0.00,,,0.02,194.000000,,2013-01-28 23:53:00,
2013-01-28 18:02:00,76.0,59.0,-100.00,SSE,152,7.0,17.0,56,0.00,,,0.02,194.000000,,2013-01-29 00:02:00,
2013-01-28 18:33:00,73.0,60.0,-100.00,SSE,159,8.0,21.0,63,0.00,,,0.00,18.000000,,2013-01-29 00:33:00,
2013-01-28 18:42:00,73.0,60.0,-100.00,SSE,159,8.0,21.0,63,0.00,,,0.00,18.000000,,2013-01-29 00:42:00,
2013-01-28 18:52:00,73.0,60.0,-100.00,SSE,159,8.0,21.0,63,0.00,,,0.00,18.000000,,2013-01-29 00:52:00,
2013-01-28 19:02:00,73.0,60.0,-100.00,SSE,159,8.0,21.0,63,0.00,,,0.00,18.000000,,2013-01-29 01:02:00,
2013-01-28 19:32:00,71.0,62.0,-100.00,SSE,155,7.0,17.0,72,0.00,,,0.00,0.000000,,2013-01-29 01:32:00,
2013-01-28 19:42:00,71.0,62.0,-100.00,SSE,155,7.0,17.0,72,0.00,,,0.00,0.000000,,2013-01-29 01:42:00,
2013-01-28 19:52:00,71.0,62.0,-100.00,SSE,155,7.0,17.0,72,0.00,,,0.00,0.000000,,2013-01-29 01:52:00,
2013-01-28 20:02:00,71.0,62.0,-100.00,SSE,155,7.0,17.0,72,0.00,,,0.00,0.000000,,2013-01-29 02:02:00,
2013-01-28 20:03:00,70.0,63.0,-100.00,SSE,161,6.0,14.0,79,0.00,,,0.00,0.000000,,2013-01-29 02:03:00,
2013-01-28 20:33:00,70.0,63.0,-100.00,SSE,161,6.0,14.0,79,0.00,,,0.00,0.000000,,2013-01-29 02:33:00,
2013-01-28 20:42:00,70.0,63.0,-100.00,SSE,161,6.0,14.0,79,0.00,,,0.00,0.000000,,2013-01-29 02:42:00,
2013-01-28 20:53:00,70.0,63.0,-100.00,SSE,161,6.0,14.0,79,0.00,,,0.00,0.000000,,2013-01-29 02:53:00,
2013-01-28 21:22:00,70.0,64.0,-100.00,SSE,167,7.0,13.0,80,0.00,,,0.00,0.000000,,2013-01-29 03:22:00,
2013-01-28 21:32:00,70.0,64.0,-100.00,SSE,167,7.0,13.0,80,0.00,,,0.00,0.000000,,2013-01-29 03:32:00,
2013-01-28 21:42:00,70.0,64.0,-100.00,SSE,167,7.0,13.0,80,0.00,,,0.00,0.000000,,2013-01-29 03:42:00,
2013-01-28 21:53:00,70.0,64.0,-100.00,SSE,167,7.0,13.0,80,0.00,,,0.00,0.000000,,2013-01-29 03:53:00,
2013-01-28 22:02:00,70.0,64.0,-100.00,SSE,167,7.0,13.0,80,0.00,,,0.00,0.000000,,2013-01-29 04:02:00,
2013-01-28 22:03:00,70.0,64.0,-100.00,SSE,165,5.0,12.0,82,0.00,,,0.00,0.000000,,2013-01-29 04:03:00,
2013-01-28 22:32:00,70.0,64.0,-100.00,SSE,165,5.0,12.0,82,0.00,,,0.00,0.000000,,2013-01-29 04:32:00,
2013-01-28 22:42:00,70.0,64.0,-100.00,SSE,165,5.0,12.0,82,0.00,,,0.00,0.000000,,2013-01-29 04:42:00,
2013-01-28 22:52:00,70.0,64.0,-100.00,SSE,165,5.0,12.0,82,0.00,,,0.00,0.000000,,2013-01-29 04:52:00,
2013-01-28 23:32:00,70.0,65.0,-100.00,SSE,154,6.0,12.0,84,0.00,,,0.00,0.000000,,2013-01-29 05:32:00,
2013-01-28 23:43:00,70.0,65.0,-100.00,SSE,154,6.0,12.0,84,0.00,,,0.00,0.000000,,2013-01-29 05:43:00,
2013-01-28 23:52:00,70.0,65.0,-100.00,SSE,154,6.0,12.0,84,0.00,,,0.00,0.000000,,2013-01-29 05:52:00,